This demonstration page uses our WeatherBlox Daily Observations layout. Learn more.

Left ArrowRight Arrow

Hourly Observations for February 20, 2016

Temp ( °F °C ) Dew Point ( °F °C ) Humidity (%) Winds ( mph kmh ) Pressure ( in mb ) Visibility ( mi km ) Precip ( " mm )
12:51 am 00:51 Clear 49 9.4 25 -3.9 39 39 Calm 30.00 1016 10 16 0.00 0.00
1:51 am 01:51 Clear 47 8.3 25 -3.9 42 42 NNE 5 7 30.00 1016 10 16 0.00 0.00
2:51 am 02:51 Clear 46 7.8 25 -3.9 44 44 NE 5 7 30.00 1016 10 16 0.00 0.00
3:51 am 03:51 Clear 45 7.2 26 -3.3 48 48 Calm 29.99 1016 10 16 0.00 0.00
4:51 am 04:51 Clear 43 6.1 26 -3.3 51 51 Calm 29.99 1016 10 16 0.00 0.00
5:51 am 05:51 Clear 42 5.6 26 -3.3 53 53 Calm 30.01 1016 10 16 0.00 0.00
6:51 am 06:51 Clear 42 5.6 26 -3.3 53 53 Calm 30.04 1017 10 16 0.00 0.00
7:51 am 07:51 Sunny 49 9.4 27 -2.8 43 43 Calm 30.05 1018 10 16 0.00 0.00
8:51 am 08:51 Sunny 54 12.2 28 -2.2 37 37 Calm 30.07 1018 10 16 0.00 0.00
9:51 am 09:51 Sunny 60 15.6 27 -2.8 28 28 Calm 30.06 1018 10 16 0.00 0.00
10:51 am 10:51 Sunny 66 18.9 27 -2.8 23 23 NW 5 7 30.05 1018 10 16 0.00 0.00
11:51 am 11:51 Sunny 70 21.1 26 -3.3 19 19 SW 5 7 30.02 1017 10 16 0.00 0.00
12:51 pm 12:51 Sunny 75 23.9 26 -3.3 16 16 VRB 5 7 29.98 1015 10 16 0.00 0.00
1:51 pm 13:51 Sunny 79 26.1 24 -4.4 13 13 WNW 7 11 29.93 1014 10 16 0.00 0.00
2:51 pm 14:51 Sunny 80 26.7 23 -5 12 12 W 12 19 29.90 1013 10 16 0.00 0.00
3:51 pm 15:51 Sunny 80 26.7 23 -5 12 12 WNW 10 17 29.88 1012 10 16 0.00 0.00
4:51 pm 16:51 Sunny 79 26.1 24 -4.4 13 13 WNW 10 17 29.89 1012 10 16 0.00 0.00
5:51 pm 17:51 Sunny 75 23.9 25 -3.9 15 15 W 7 11 29.90 1013 10 16 0.00 0.00
6:51 pm 18:51 Clear 66 18.9 25 -3.9 21 21 NNW 5 7 29.93 1014 10 16 0.00 0.00
7:51 pm 19:51 Clear 66 18.9 25 -3.9 21 21 WNW 6 9 29.93 1014 10 16 0.00 0.00
8:51 pm 20:51 Clear 60 15.6 25 -3.9 26 26 N 3 6 29.95 1014 10 16 0.00 0.00
9:51 pm 21:51 Clear 55 12.8 25 -3.9 31 31 Calm 29.96 1015 10 16 0.00 0.00
10:51 pm 22:51 Clear 52 11.1 25 -3.9 35 35 Calm 29.96 1015 10 16 0.00 0.00
11:51 pm 23:51 Clear 57 13.9 26 -3.3 30 30 W 3 6 29.94 1014 10 16 0.00 0.00

Powered by AerisWeather